This is the latest recevied weather packets stored in our database for station/object KC3ELT-10. If no packets are shown the sender has not sent any weather packets the latest 10 day(s).
| Time | Temp. | Humidity | Pressure | Rain* | Wind** | Luminosity | Snow |
|---|---|---|---|---|---|---|---|
| 1777595278 | 8.33° C | 88% | 1004.3 hPa | 0 mm | 0.89 m/s, 359° | - | - |
| 1777594979 | 8.33° C | 88% | 1004.3 hPa | 0 mm | 0.45 m/s, 330° | - | - |
| 1777594679 | 8.33° C | 88% | 1004.3 hPa | 0 mm | 0.89 m/s, 328° | - | - |
| 1777594379 | 8.89° C | 88% | 1004.1 hPa | 0 mm | 1.34 m/s, 303° | - | - |
| 1777594078 | 8.89° C | 87% | 1004.1 hPa | 0 mm | 2.24 m/s, 288° | - | - |
| 1777593778 | 8.89° C | 87% | 1004.1 hPa | 0 mm | 0.89 m/s, 343° | - | - |
| 1777593479 | 8.89° C | 87% | 1004 hPa | 0 mm | 1.34 m/s, 358° | - | - |
| 1777593179 | 8.89° C | 87% | 1004 hPa | 0 mm | 1.34 m/s, 336° | - | - |
| 1777592879 | 8.89° C | 87% | 1004 hPa | 0 mm | 0.89 m/s, 326° | - | - |
| 1777592578 | 8.89° C | 86% | 1003.6 hPa | 0 mm | 2.68 m/s, 300° | - | - |
| 1777592279 | 8.89° C | 86% | 1003.6 hPa | 0 mm | 1.34 m/s, 343° | - | - |
| 1777591979 | 8.89° C | 86% | 1003.6 hPa | 0 mm | 0.89 m/s, 323° | - | - |
| 1777591678 | 8.89° C | 86% | 1003.6 hPa | 0 mm | 1.34 m/s, 1° | - | - |
| 1777591379 | 8.89° C | 85% | 1003.6 hPa | 0 mm | 0.89 m/s, 333° | - | - |
| 1777591079 | 8.89° C | 85% | 1003.6 hPa | 0 mm | 0.89 m/s, 312° | - | - |
| 1777590778 | 8.89° C | 84% | 1003.6 hPa | 0 mm | 1.79 m/s, 300° | - | - |
| 1777590478 | 8.89° C | 84% | 1003.6 hPa | 0 mm | 1.34 m/s, 289° | - | - |
| 1777590178 | 8.89° C | 83% | 1003.6 hPa | 0 mm | 3.13 m/s, 271° | - | - |
| 1777589878 | 9.44° C | 82% | 1003.4 hPa | 0 mm | 0.89 m/s, 271° | - | - |
| 1777589579 | 9.44° C | 81% | 1003.4 hPa | 0 mm | 1.34 m/s, 282° | - | - |
| 1777589278 | 10° C | 78% | 1003.4 hPa | 0 mm | 2.68 m/s, 285° | - | - |
| 1777588979 | 10.56° C | 76% | 1002.4 hPa | 0 mm | 5.81 m/s, 274° | - | - |
| 1777588678 | 12.22° C | 68% | 1002.4 hPa | 0 mm | 6.71 m/s, 288° | - | - |
| 1777588379 | 13.33° C | 64% | 1002.4 hPa | 0 mm | 3.13 m/s, 321° | - | - |
| 1777588079 | 13.33° C | 63% | 1002.3 hPa | 0 mm | 0 m/s | - | - |
* Rain latest hour (hover to see other rain measurements)
** Current wind speed in m/s (hover to see current wind gust speed)